User: anonymous   Login
Location: Unspecified
(0.0000°N, 0.0000°E)
Time: 07:14:05
(UTC+02:00)
Language:

YAOGAN 3 - Orbit

View from above orbital plane
View from above orbital plane
View from above satellite
View from above satellite

Ground track
Ground track

The orbit data is extracted from the following two-line orbital elements,

1 32289U 07055A   16120.89013541  .00000259  00000-0  40607-4 0  9999
2 32289  97.9848 118.2693 0001354  94.4944 265.6444 14.80684309457570
Epoch (UTC): 29 April 2016 21:21:47
Eccentricity: 0.0001354
inclination: 97.9848°
perigee height: 626 km
apogee height: 628 km
right ascension of ascending node: 118.2693°
argument of perigee: 94.4944°
revolutions per day: 14.80684309
mean anomaly at epoch: 265.6444°
orbit number at epoch: 45757

The dashed part of the orbit path shows where the satellite is in the earth's shadow,  

DLR